STARLINK-35720 (67052 NORAD) Tracking and Keplerian Element Data

This shows tracking and keplerian element data for the satellite.

Feedback or suggestion? Click here.




ElementValue
Catalog67052
NameSTARLINK-35720
Epoch Orbit150
Epoch Day354.25003472
Epoch Year2025
RAAN136.1797
Inclination43.0004
Eccentricity0.0001792
Argument of Perigee264.7816
Mean Anonmoly6.6289
Mean Motion15.89386904
Decay Rate-0.01463585
L11 67052U 25294Y 25354.25003472 -.01463585 00000+0 -55875-2 0 9999
L22 67052 43.0004 136.1797 0001792 264.7816 6.6289 15.89386904 1500



Live tracking and technical data element details for STARLINK-35720 (NORAD 67052). STARLINK-35720 can be tracked NOW for your location showing map with azimuth and elevation plus other details from your city location.







IsCatalogInMostPopularTable: catalog: 67052, numindb: 15
Update: records affected: 1



GetName: 67052 STARLINK-35720

Hit Count: updated at: Fri, 16 Jan 2026 09:59:14 GMT